Location: Lake Mineral Wells State Park
(32.8157°N, 98.0290°W)
Time: 00:15:20
(UTC-06:00)

Envisat - Pass Details

Date: 01 November 2019
Orbit: 764 x 766 km, 98.1° (Epoch: 19 November)

Event Time Altitude Azimuth Distance (km) Brightness Sun altitude
Rises 07:12:30 0° 34° (NE) 3,232 6.6 -8.4°
Reaches altitude 10° 07:15:42 10° 55° (NE) 2,301 6.2 -7.8°
Maximum altitude 07:18:48 16° 94° (E) 1,901 6.5 -7.1°
Drops below altitude 10° 07:21:53 10° 132° (SE) 2,292 6.6 -6.5°
Sets 07:25:03 0° 153° (SSE) 3,213 6.9 -5.9°
